FREGAT R/B, 44116

Orbit data source: Space-Track

FREGAT R/B, 44116 is space debris in HEO originally from a launch on Thu, 04 Apr 2019 UTC launched from the French Guiana (FRGUI). Debris objects in space refer to the collection of defunct objects orbiting the Earth. Examples of debris include non-operational satellites, rocket bodies, and fragments generated from explosions, collisions, or faulty payload assembly.

Loading next visibility...
FREGAT R/B details
Identifier
44116, 2019-020E
Orbit
HEO
Last TLE update5 months ago
Origin
Flag of CISLavochkin (CIS)
ManufacturerLavochkin
MissionSpacecraft
Bus & MotorFREGAT, Unknown motor
Mass1,050 kg wet, 1,050 kg dry
Launch date (UTC)
2019-04-04 (6 years ago)
Launch vehicleUnknown
Launch site
French Guiana (FRGUI)
Object type
Payload
Rocket body
Debris
Shape & HBRIrr, 3.3 m
Radar Cross Section11.055 m², Large (>1 m²)

Expand to show TLE details & history

TLE from 5 months ago
0 FREGAT R/B
1 44116U 19020E   24207.69500667 -.00000017  00000-0  00000-0 0  9991
2 44116   7.9140 193.6520 4429740 278.1720  35.3540  4.16277731100461
Epoch: 2024-07-25T16:40Z
Definitive object data (Epoch: 2024-07-25T16:40:48.576Z)
Latitude-0.00004°
Longitude-0.49463°
Altitude5,951.892 km
Speed6.343 km/s
True Right ascension12h 54m 21s
True Declination0° 00' 00"
Sunlit
Object was in daylight at TLE epoch
Visualization TLE readout
Latitude-3.77548°
Longitude118.56274°
Altitude9,877.675 km
Speed4.962 km/s
Apparent Right ascension22h 00m 52s
Apparent Declination-18° 32' 08"
Sunlit
Object is in full shadow
Visualization observer readout
Local Sidereal Time16:07:20
Azimuth105.396° ESE
Elevation-10.571°
Doppler factor1
Orbital elements
Apogee altitude17,181.501 km
Perigee altitude2,716.504 km
Semi-major axis16,327.14 km
Eccentricity0.442974
Inclination7.914°
RAAN193.652°
Arg. of periapsis278.172°
True anomaly81.7366°
Mean anomaly35.354°
Eccentric anomaly56.52445°
Mean motion1.04035 °/min
BSTARUnknown
Orbital period346.04 mins
Loading maneuver chart data...
Loading historical data...
Loading historical data...
Loading historical data...
Loading historical data...
Loading historical data...
Loading historical data...
Loading historical data...
Other satellites on launch #20 in the year 2019 (2019-04-04 UTC)

FREGAT R/B Visibility forecast

Observer location: undefined°, undefined

Span
Click to sort rows by Start time (UTC) header in descending order
Start Az.
Max El. time (UTC)
Max El. Az.
Max El.
End time (UTC)
End Az.
219 mins2024-12-26 22:10:06.849Z226.319° WSW2024-12-26 23:12:06.849Z174.868° S24.661°2024-12-27 01:49:06.849Z127.428° SE
71 mins2024-12-27 07:32:06.849Z232.221° WSW2024-12-27 08:25:06.849Z188.387° SSW21.67°2024-12-27 08:43:06.849Z140.37° SSE
15 mins2024-12-27 14:47:06.849Z208.18° SW2024-12-27 14:53:06.849Z178.802° S15.263°2024-12-27 15:02:06.849Z142.595° SSE
|